Weather History for Shelton, WA

Change the Weather History Date:

Sunday, January 19, 2014

  Actual Average Record
Temperature  
Mean Temperature 36 °F -  
Max Temperature 42 °F 47 °F 61 °F (2005)
Min Temperature 30 °F 34 °F 18 °F (1954)
Degree Days  
Heating Degree Days 29    
Moisture  
Dew Point 37 °F    
Average Humidity 94    
Maximum Humidity 100    
Minimum Humidity 89    
Precipitation  
Precipitation 0.00 in - - ()
Sea Level Pressure  
Sea Level Pressure 30.22 in    
Wind  
Wind Speed 2 mph (NE)    
Max Wind Speed 7 mph    
Max Gust Speed -    
Visibility 4 miles    
Events Fog    
Averages and records for this station are not official NWS values.
T = Trace of Precipitation, MM = Missing Value Source: NWS Daily Summary

Daily Weather History Graph

Daily Weather History Graph

Search for Another Location

Airport:

Trip Planner

Search our weather history database for the weather conditions in past years. The results will help you decide how hot, cold, wet, or windy it might be!

Date:

Astronomy

Jan. 19, 2014 Rise Set
Actual Time 7:51 AM PST 4:55 PM PST
Civil Twilight 7:17 AM PST 5:29 PM PST
Nautical Twilight 6:40 AM PST 6:07 PM PST
Astronomical Twilight 6:03 AM PST 6:43 PM PST
Moon 8:56 PM PST (1/19) 9:08 AM PST (1/19)
Length of Visible Light 10h 11m
Length of Day
9h 03m
Waning Gibbous, 89% of the Moon is Illuminated
Jan 19
Waning Gibbous
Jan 23
Last Quarter
Jan 30
New
Feb 6
First Quarter
Feb 14
Full

Hourly Weather History & Observations

Time (PST) Temp. Windchill Dew Point Humidity Pressure Visibility Wind Dir Wind Speed Gust Speed Precip Events Conditions
1:40 AM 30.0 °F 26.5 °F 28.9 °F 96% 30.15 in 1.8 mi North 3.5 mph - N/A   Overcast
1:44 AM 30.0 °F 26.5 °F 28.9 °F 96% 30.15 in 3.0 mi North 3.5 mph - N/A   Overcast
1:53 AM 30.9 °F - 28.9 °F 92% 30.17 in 3.0 mi Calm Calm - N/A   Overcast
1:57 AM 30.9 °F - 30.0 °F 96% 30.15 in 1.8 mi Calm Calm - N/A   Overcast
2:07 AM 30.9 °F - 30.0 °F 96% 30.15 in 0.2 mi Calm Calm - N/A Fog Light Freezing Fog
2:53 AM 32.0 °F - 32.0 °F 100% 30.19 in 0.2 mi Calm Calm - N/A Fog Fog
4:53 AM 34.0 °F - 34.0 °F 100% 30.20 in 0.2 mi Calm Calm - N/A Fog Fog
5:10 AM 34.0 °F - 34.0 °F 100% 30.18 in 0.2 mi Calm Calm - N/A Fog Fog
5:41 AM 35.1 °F - 35.1 °F 100% 30.17 in 0.8 mi Calm Calm - N/A   Mist
5:53 AM 35.1 °F - 34.0 °F 96% 30.19 in 1.0 mi Calm Calm - N/A   Mist
6:02 AM 36.0 °F - 35.1 °F 97% 30.17 in 0.8 mi Calm Calm - N/A   Mist
6:53 AM 36.0 °F - 36.0 °F 100% 30.19 in 0.8 mi Calm Calm - N/A   Mist
7:53 AM 37.0 °F - 36.0 °F 96% 30.19 in 0.8 mi Calm Calm - N/A   Mist
8:53 AM 37.9 °F - 37.0 °F 97% 30.19 in 0.2 mi Calm Calm - N/A Fog Fog
9:45 AM 39.0 °F 36.8 °F 37.0 °F 93% 30.18 in 1.2 mi NNE 3.5 mph - N/A   Overcast
9:53 AM 39.0 °F - 37.9 °F 96% 30.21 in 1.5 mi Calm Calm - N/A   Overcast
10:23 AM 39.9 °F - 37.9 °F 93% 30.20 in 2.0 mi Calm Calm - N/A   Overcast
10:40 AM 39.9 °F - 39.0 °F 97% 30.21 in 3.0 mi Calm Calm - N/A   Overcast
10:53 AM 39.9 °F 37.8 °F 37.9 °F 93% 30.22 in 4.0 mi North 3.5 mph - N/A   Overcast
11:07 AM 39.9 °F 36.7 °F 39.0 °F 97% 30.20 in 5.0 mi NE 4.6 mph - N/A   Overcast
11:37 AM 41.0 °F 39.0 °F 39.0 °F 93% 30.20 in 7.0 mi Variable 3.5 mph - N/A   Overcast
11:53 AM 39.9 °F 37.8 °F 39.0 °F 97% 30.22 in 8.0 mi NNW 3.5 mph - N/A   Overcast
12:53 PM 39.9 °F 37.8 °F 39.0 °F 97% 30.23 in 8.0 mi SE 3.5 mph - N/A   Overcast
1:53 PM 41.0 °F 39.0 °F 39.0 °F 93% 30.23 in 6.0 mi NE 3.5 mph - N/A   Overcast
2:53 PM 41.0 °F 37.1 °F 39.0 °F 93% 30.23 in 9.0 mi ENE 5.8 mph - N/A   Overcast
3:38 PM 42.1 °F 39.2 °F 39.9 °F 92% 30.23 in 2.0 mi ENE 4.6 mph - N/A   Overcast
3:53 PM 42.1 °F 39.2 °F 39.9 °F 92% 30.24 in 2.0 mi East 4.6 mph - N/A   Overcast
4:10 PM 42.1 °F 37.7 °F 39.9 °F 92% 30.23 in 4.0 mi NE 6.9 mph - N/A   Overcast
4:33 PM 42.1 °F 39.2 °F 39.9 °F 92% 30.23 in 4.0 mi NE 4.6 mph - N/A   Overcast
4:46 PM 42.1 °F - 39.9 °F 92% 30.23 in 3.0 mi Calm Calm - N/A   Overcast
4:53 PM 42.1 °F 39.2 °F 39.9 °F 92% 30.25 in 4.0 mi East 4.6 mph - N/A   Overcast
5:11 PM 42.1 °F 40.2 °F 39.9 °F 92% 30.23 in 6.0 mi ENE 3.5 mph - N/A   Overcast
5:33 PM 42.1 °F - 39.9 °F 92% 30.24 in 4.0 mi Calm Calm - N/A   Overcast
5:43 PM 42.1 °F 40.2 °F 39.9 °F 92% 30.24 in 4.0 mi NE 3.5 mph - N/A   Overcast
5:53 PM 42.1 °F - 39.9 °F 92% 30.25 in 7.0 mi Calm Calm - N/A   Overcast
6:05 PM 42.1 °F 40.2 °F 39.9 °F 92% 30.23 in 6.0 mi ENE 3.5 mph - N/A   Overcast
6:53 PM 42.1 °F 40.2 °F 39.9 °F 92% 30.26 in 9.0 mi ENE 3.5 mph - N/A   Overcast
7:38 PM 42.1 °F 38.4 °F 39.0 °F 89% 30.26 in 6.0 mi NE 5.8 mph - N/A   Overcast
7:53 PM 42.1 °F 39.2 °F 39.9 °F 92% 30.28 in 6.0 mi NE 4.6 mph - N/A   Overcast
8:53 PM 42.1 °F 39.2 °F 39.9 °F 92% 30.30 in 7.0 mi ENE 4.6 mph - N/A   Overcast
9:34 PM 41.0 °F 36.4 °F 39.0 °F 93% 30.27 in 6.0 mi ENE 6.9 mph - N/A   Overcast
9:53 PM 41.0 °F 36.4 °F 39.0 °F 93% 30.29 in 6.0 mi ENE 6.9 mph - N/A   Overcast
10:53 PM 41.0 °F 36.4 °F 39.0 °F 93% 30.30 in 6.0 mi ENE 6.9 mph - N/A   Overcast
11:53 PM 41.0 °F 36.4 °F 39.0 °F 93% 30.30 in 8.0 mi NE 6.9 mph - N/A   Overcast